This demonstration page uses our WeatherBlox Daily Observations layout. Learn more.

Left ArrowRight Arrow

44.8408, -93.29828

Hourly Observations for June 2, 2017

Temp ( °F °C ) Dew Point ( °F °C ) Humidity (%) Winds ( mph kmh ) Pressure ( in mb ) Visibility ( mi km ) Precip ( " mm )
12:53 am 00:53 Clear 64 17.8 39 3.9 40 40 SE 6 9 30.00 1016 10 16 0.00 0.00
1:53 am 01:53 Clear 63 17.2 38 3.3 40 40 ESE 5 7 30.00 1016 10 16 0.00 0.00
2:53 am 02:53 Clear 62 16.7 39 3.9 43 43 E 5 7 30.01 1016 10 16 0.00 0.00
3:53 am 03:53 Clear 60 15.6 40 4.4 47 47 E 5 7 30.01 1016 10 16 0.00 0.00
4:53 am 04:53 Clear 58 14.4 43 6.1 58 58 ESE 6 9 30.00 1016 10 16 0.00 0.00
5:53 am 05:53 Mostly Sunny 58 14.4 43 6.1 58 58 ESE 5 7 30.00 1016 10 16 0.00 0.00
6:53 am 06:53 Mostly Sunny 61 16.1 41 5 48 48 SSE 7 11 30.01 1016 10 16 0.00 0.00
7:53 am 07:53 Mostly Sunny 64 17.8 43 6.1 46 46 SE 7 11 30.01 1016 10 16 0.00 0.00
8:53 am 08:53 Mostly Sunny 68 20 48 8.9 49 49 SSE 7 11 30.01 1016 10 16 0.00 0.00
9:53 am 09:53 Mostly Sunny 72 22.2 52 11.1 50 50 VRB 5 7 30.00 1016 10 16 0.00 0.00
10:53 am 10:53 Sunny 78 25.6 57 13.9 48 48 SE 3 6 29.97 1015 10 16 0.00 0.00
11:53 am 11:53 Sunny 82 27.8 59 15 46 46 VRB 3 6 29.97 1015 10 16 0.00 0.00
12:53 pm 12:53 Mostly Sunny 84 28.9 58 14.4 41 41 VRB 5 7 29.95 1014 10 16 0.00 0.00
1:53 pm 13:53 Partly Cloudy 87 30.6 51 10.6 29 29 SSW 13 20 29.93 1014 10 16 0.00 0.00
2:53 pm 14:53 Mostly Cloudy 88 31.1 50 10 27 27 SSE 13 20 29.92 1013 10 16 0.00 0.00
3:53 pm 15:53 Mostly Cloudy 89 31.7 52 11.1 28 28 S 13 20 29.90 1013 10 16 0.00 0.00
4:53 pm 16:53 Mostly Cloudy 89 31.7 53 11.7 29 29 S 10 17 29.88 1012 10 16 0.00 0.00
5:53 pm 17:53 Partly Cloudy 89 31.7 53 11.7 29 29 S 8 13 29.85 1011 10 16 0.00 0.00
7:53 pm 19:53 Partly Cloudy 85 29.4 57 13.9 39 39 SE 7 11 29.82 1010 10 16 0.00 0.00
8:53 pm 20:53 Partly Cloudy 83 28.3 58 14.4 43 43 SE 7 11 29.82 1010 10 16 0.00 0.00
9:53 pm 21:53 Mostly Cloudy 81 27.2 58 14.4 45 45 SE 6 9 29.83 1010 10 16 0.00 0.00
10:53 pm 22:53 Mostly Cloudy 79 26.1 59 15 50 50 SE 12 19 29.83 1010 10 16 0.00 0.03
11:53 pm 23:53 Partly Cloudy 80 26.7 59 15 49 49 S 12 19 29.83 1010 10 16 0.00 0.00

Powered by AerisWeather